{"data":{"norad_id":68500,"epoch":"2026-05-24T20:24:00.273024Z","epoch_age_seconds":87961,"freshness":"FRESH","line1":"1 68500U 26067CN  26144.85000316  .00002002  00000+0  20538-3 0  9994","line2":"2 68500  97.7607 103.4561 0003797  91.8395 268.3259 14.91537730  8247","mean_motion":14.9153773,"eccentricity":0.0003797,"inclination_deg":97.7607,"raan_deg":103.4561,"arg_perigee_deg":91.8395,"mean_anomaly_deg":268.3259,"bstar":0.00020538,"rev_number":824,"period_min":96.544657975229,"perigee_km":590.49310138515,"apogee_km":595.78708921132,"semimajor_km":6971.2770952982,"source":"CELESTRAK","updated_at":"2026-05-25T13:38:07.878810Z"}}